Regional Weather Roundup
Issued by NWS

Home | Current Version | Previous Version | Graphics & Text | Print | Product List | Glossary On
Versions: 1 2 3 4 5 6 7 8 9 10 11 12 13 14 15 16 17 18 19 20 21 22 23 24 25 26 27 28 29 30 31 32 33 34 35 36 37 38 39 40 41 42 43 44 45 46 47 48 49 50
046
ASUS44 KLIX 210211
RWRLA
LOUISIANA WEATHER ROUNDUP
NATIONAL WEATHER SERVICE NEW ORLEANS LA
900 PM CDT MON APR 20 2015

NOTE: "FAIR" INDICATES FEW OR NO CLOUDS BELOW 12,000 FEET WITH NO
      SIGNIFICANT WEATHER AND/OR OBSTRUCTIONS TO VISIBILITY.
      SKY/WX - SKY CONDITION AND SIGNIFICANT WEATHER.
      TMP - AIR TEMPERATURE.    DP   - DEWPOINT TEMPERATURE.
      RH  - RELATIVE HUMIDITY.  PRES - PRESSURE.
      HX  - HEAT INDEX.         WCI  - WIND CHILL INDEX.

*  THESE STATIONS ARE NOT NWS OR FAA STATIONS AND ARE NOT UNDER
   NWS QUALITY CONTROL.

LAZ040-048-061>063-065-066-069-210300-
SOUTHEAST LOUISIANA

CITY           SKY/WX    TMP DP  RH WIND       PRES   REMARKS
N.O. AUDUBON   NOT AVBL
N.O. INTL ARPT CLOUDY    70  53  54 NW8       29.95R
N.O. LAKEFRONT CLOUDY    74  52  46 N13       29.95R
SLIDELL        MOCLDY    66  56  70 NW3       29.94R
BATON ROUGE    CLOUDY    63  56  78 CALM      29.96R
BOOTHVILLE     CLOUDY    71  63  75 NW5       29.94R
BELLE CHASSE   CLOUDY    70  53  54 NW5       29.94R
BOGALUSA*        N/A     65  55  69 CALM      29.96R
GALLIANO*      CLOUDY    70  58  67 NW5       29.95R
NEW ROADS*     FAIR      65  56  74 CALM      29.96R
GONZALES*      FAIR      64  58  81 CALM      29.96R
HAMMOND*       CLOUDY    64  54  68 CALM      29.97R
HOUMA*         CLOUDY    67  55  66 NW6       29.95R
PORT FOURCHON* CLEAR     73  59  60 N6        29.97R

$$

LAZ041-044-053-054-210300-
SOUTHWEST LOUISIANA

CITY           SKY/WX    TMP DP  RH WIND       PRES   REMARKS
LAKE CHARLES   MOCLDY    64  50  60 CALM      29.96R
LAFAYETTE      CLOUDY    66  50  56 NE3       29.96R
PATTERSON      CLOUDY    66  54  63 N6        29.98R
SALT POINT       N/A     67  55  65 N3        29.95R
NEW IBERIA     MOCLDY    65  54  67 N3        29.97R
CHENAULT AIRPK NOT AVBL

$$

LAZ027-028-210300-
CENTRAL LOUISIANA

CITY           SKY/WX    TMP DP  RH WIND       PRES   REMARKS
FORT POLK      MOCLDY    60  53  77 E1        29.96R
ALEXANDRIA INT MOCLDY    60  52  74 CALM      29.95R
ALEXANDRIA     MOCLDY    56  53  90 CALM      29.97R

$$

LAZ001-002-210300-
NORTHWEST LOUISIANA

CITY           SKY/WX    TMP DP  RH WIND       PRES   REMARKS
SHREVEPORT     MOCLDY    60  46  59 CALM      29.97R
BARKSDALE AFB  PTCLDY    58  49  72 CALM      29.96R
DTN SHREVEPORT PTCLDY    57  48  72 CALM      29.97R

$$

LAZ014-016-210300-
NORTHEAST LOUISIANA

CITY           SKY/WX    TMP DP  RH WIND       PRES   REMARKS
MONROE         PTCLDY    59  50  72 CALM      29.96R
TALLULAH       CLEAR     56  51  84 CALM      29.95R

$$




USA.gov is the U.S. government's official web portal to all federal, state and local government web resources and services.